Location: Miles
(41.4492°N, 81.6087°W)
Time: 19:06:35
(UTC+00:00)

Tiros 1 despin weight - Pass Details

Date: 18 September 2024
Orbit: 573 x 615 km, 48.2° (Epoch: 04 October)

Event Time Altitude Azimuth Distance (km) Brightness Sun altitude
Rises 05:37:10 0° 188° (S) 2,831 - -46.7°
Reaches altitude 10° 05:40:25 10° 163° (SSE) 1,944 - -46.7°
Maximum altitude 05:42:43 14° 132° (SE) 1,707 - -46.6°
Drops below altitude 10° 05:45:03 10° 100° (E) 1,963 - -46.5°
Sets 05:48:21 0° 76° (ENE) 2,880 - -46.4°
